Dewpoint
57 57 57 57 57 58 58 57 57 57 57 58 58 58 58 58 58 58 57 57 58 58 58 58 58 59 59 60 60 61 61 58 56 50 44 36 52 59 62 68 71 71 74 44 18 13 9 14 19 27 37 40 42 42 43 44 39 36 45 44 44 45 46 48 50 54 57 59 61 64 64 63 61 65 67 65 67 68 67 67 70 69 71 71 66 64 62 66
57 57 57 57 57 57 57 57 57 57 57 57 57 57 57 57 57 57 57 57 58 58 58 58 58 59 59 60 61 61 60 58 54 53 46 49 65 65 70 70 73 70 61 15 22 16 14 14 23 32 35 35 39 32 33 30 36 39 47 46 41 46 47 52 53 57 59 59 62 63 65 63 62 63 64 63 64 65 65 67 69 66 67 68 65 65 60 64
56 56 57 57 57 57 57 57 57 57 57 57 57 57 57 57 57 57 58 58 58 58 58 58 58 59 60 60 61 61 59 56 55 51 50 66 66 69 70 68 70 73 20 11 15 17 24 24 27 33 35 36 35 30 32 27 36 41 46 45 46 49 51 56 59 59 60 62 62 63 63 63 63 64 63 63 62 65 63 63 64 63 64 65 63 64 60 61
56 56 56 56 56 57 57 57 56 56 57 57 57 57 57 57 57 57 58 58 57 57 58 58 59 59 60 61 61 60 58 55 45 44 39 67 71 67 71 73 75 73 49 42 35 23 29 33 35 35 35 36 34 29 27 25 37 44 46 47 49 52 51 54 62 59 61 63 63 63 64 63 64 64 63 64 61 62 64 65 63 63 64 63 63 62 60 60
56 56 56 56 56 56 57 56 56 56 56 56 56 56 56 57 57 57 57 57 57 57 58 58 59 59 60 61 61 59 54 39 37 41 42 69 70 70 73 72 76 64 49 44 42 41 38 36 36 37 37 34 32 29 27 29 32 41 44 47 49 52 49 54 60 62 62 63 63 63 61 61 64 62 62 61 59 58 62 66 65 65 65 63 62 61 61 60
56 56 56 56 56 56 56 56 56 56 56 56 56 56 56 56 57 57 57 57 57 57 58 58 59 60 60 61 60 58 49 37 44 43 72 73 71 74 75 76 73 62 49 47 47 45 43 42 39 37 30 31 28 26 25 26 39 44 47 48 50 50 49 53 58 62 61 61 60 61 62 63 61 62 62 61 61 62 64 65 65 65 66 66 62 61 60 61
55 55 55 55 56 56 56 56 55 55 55 56 56 56 56 56 56 56 56 56 56 57 58 58 59 60 61 61 59 55 43 41 42 47 71 74 73 72 76 76 73 34 36 38 40 43 42 39 40 35 29 26 26 25 24 23 44 44 45 47 48 49 50 53 58 63 58 58 58 61 63 60 61 59 61 61 63 65 65 64 65 65 65 66 62 61 65 65
55 55 55 55 55 55 56 55 55 55 55 55 55 56 56 56 56 56 56 56 57 58 58 59 59 60 60 57 53 44 45 44 44 62 73 71 72 71 74 62 42 33 29 31 36 39 39 36 35 29 26 27 27 26 27 22 38 42 43 45 47 50 52 54 58 58 61 60 61 64 57 59 61 59 59 61 60 64 64 64 63 64 66 65 63 64 66 66
55 55 55 55 55 55 55 55 55 55 55 55 56 56 56 56 56 56 57 57 57 58 59 60 60 60 60 58 50 45 40 46 47 61 65 60 62 68 55 37 37 29 32 32 31 33 36 35 30 29 24 28 29 27 27 23 24 29 42 44 47 49 53 56 58 60 62 62 65 61 61 61 61 56 58 59 61 64 64 63 63 65 66 64 64 66 65 64
55 55 55 55 55 55 55 55 55 55 55 55 56 56 56 56 56 57 57 57 58 58 59 60 61 61 58 55 53 44 45 50 55 61 53 53 53 51 48 45 38 34 32 29 30 31 33 31 30 27 30 32 28 27 28 25 24 24 37 43 46 53 54 58 55 59 62 62 63 55 55 56 60 55 53 60 61 63 62 62 64 65 64 64 64 65 65 64
55 56 55 55 55 55 55 55 55 55 55 56 56 56 56 56 56 57 57 57 58 59 60 60 61 60 56 54 40 39 46 46 49 53 46 50 44 40 40 41 37 35 32 29 27 28 29 29 26 27 30 30 27 27 27 23 25 25 20 38 48 53 55 59 58 59 61 58 62 54 53 58 58 57 54 57 60 62 61 62 63 64 63 63 64 65 66 65
55 55 55 55 56 55 55 55 55 55 55 56 56 56 56 56 57 57 57 58 59 59 60 60 61 59 57 53 43 39 46 46 48 47 46 44 40 39 37 37 35 31 27 27 28 27 27 26 26 26 26 29 26 28 25 26 26 25 21 30 45 53 56 58 57 60 60 57 62 60 51 48 52 53 56 59 60 61 62 62 63 63 64 62 64 65 66 65
55 55 55 55 55 55 55 55 55 55 56 56 56 56 56 56 57 57 58 58 59 59 60 60 61 59 56 44 47 48 48 45 44 45 45 39 33 34 32 32 34 33 27 23 25 26 28 27 26 24 28 28 27 26 27 28 26 25 23 36 44 47 48 55 58 60 59 55 61 56 42 46 49 56 58 58 59 59 61 62 62 63 62 62 63 64 64 65
55 55 55 56 55 55 55 55 56 55 55 56 56 56 56 57 57 58 58 59 59 60 61 62 60 58 55 49 52 49 46 45 43 42 40 39 35 35 35 29 28 33 30 25 25 27 30 28 26 25 30 30 26 29 27 26 29 27 24 37 40 38 41 53 55 57 57 59 59 53 38 38 48 54 59 59 60 58 59 60 61 63 63 62 63 64 65 66
55 55 55 55 55 55 55 55 55 55 56 56 56 56 56 57 57 58 59 59 60 60 61 61 60 54 51 48 48 49 73 42 40 39 40 37 34 29 25 25 25 27 24 28 31 31 32 30 28 27 26 32 31 27 25 22 22 22 18 21 27 34 39 49 57 56 53 57 60 49 42 40 43 50 58 60 60 58 58 59 60 63 63 62 63 63 64 65
55 55 55 55 55 55 55 55 56 56 56 56 55 56 56 57 58 58 59 60 61 62 61 58 58 54 45 41 42 55 39 37 37 40 39 37 31 27 24 23 27 24 26 27 32 33 31 32 28 27 27 28 28 25 22 22 21 23 18 22 35 41 40 45 50 56 54 58 60 51 38 43 42 49 57 61 60 58 57 58 59 61 61 62 62 62 63 63
55 55 56 56 55 55 55 55 56 56 56 56 56 56 56 57 58 59 60 60 60 61 59 53 54 54 43 43 45 39 37 36 40 42 37 36 29 28 27 23 21 21 23 24 25 26 27 28 31 28 31 27 27 26 24 24 22 24 22 27 42 37 41 39 44 51 56 55 51 56 46 43 43 48 55 60 59 56 56 57 59 61 61 61 61 62 62 63
56 56 56 56 56 55 55 55 55 56 56 55 55 56 56 58 59 58 57 60 59 57 57 57 51 45 40 45 39 38 38 40 39 38 31 32 30 28 22 21 21 21 22 21 19 23 25 24 28 24 26 25 24 24 23 22 20 19 23 23 27 39 41 41 37 45 51 56 51 52 50 47 46 48 55 58 58 56 56 57 58 60 60 61 61 62 62 62
56 56 56 56 56 55 55 55 55 55 55 55 56 57 59 59 57 53 51 56 49 35 25 43 43 34 27 34 41 41 37 37 38 36 33 33 31 27 27 25 20 17 18 18 17 22 24 25 25 24 22 22 22 22 22 22 23 20 18 28 30 31 37 38 41 46 45 46 47 48 48 46 44 46 54 57 58 56 56 57 58 58 60 61 61 62 62 62
55 55 56 56 55 55 55 55 55 55 55 54 51 54 55 44 40 49 53 51 48 36 35 37 43 43 33 33 39 38 36 34 32 34 33 33 24 26 25 27 20 17 16 15 18 20 27 23 22 21 21 22 23 23 22 22 22 20 18 18 25 22 29 37 45 48 48 44 39 41 45 37 39 44 52 55 54 54 55 56 57 56 59 60 60 61 62 62
55 56 56 55 55 55 54 55 55 55 55 53 51 52 42 41 33 33 39 41 44 43 43 41 38 35 29 31 29 34 28 29 32 31 27 33 23 21 21 19 14 10 9 12 13 18 23 24 22 22 22 22 22 22 21 20 17 17 18 18 23 21 23 33 37 46 51 41 33 38 34 34 41 46 49 52 52 49 53 55 56 56 57 59 58 59 61 62
55 55 55 55 55 55 55 55 55 55 55 52 52 51 51 50 41 39 38 33 33 38 39 36 40 37 37 34 32 30 30 29 27 27 28 24 23 16 16 15 14 8 12 10 9 9 22 18 20 22 23 22 22 21 19 16 14 16 15 24 22 22 24 35 45 49 51 44 32 41 26 34 39 44 48 50 51 49 53 55 55 56 55 57 58 57 59 62
55 55 55 55 55 55 55 56 55 54 51 51 49 49 45 46 43 41 40 36 33 35 36 36 33 32 32 36 33 28 26 27 23 27 21 22 19 16 17 15 15 17 18 9 4 15 14 12 16 17 18 18 17 15 14 10 15 14 10 10 11 26 15 16 38 46 48 36 31 35 28 37 46 52 52 54 54 53 54 57 56 56 55 56 57 57 58 60
55 54 55 54 54 55 56 55 53 53 51 50 50 48 45 42 43 40 35 33 33 33 34 34 32 32 30 27 26 24 23 26 27 26 30 19 14 17 17 13 13 16 12 11 5 4 5 6 12 14 15 15 14 13 11 11 7 11 15 10 8 6 7 11 32 41 47 47 47 39 41 35 42 48 50 51 54 56 57 56 55 54 56 57 59 58 59 60
54 54 54 54 54 54 54 53 51 51 51 48 47 48 46 44 48 40 35 33 34 32 34 33 33 24 24 29 29 23 26 26 25 30 25 17 17 18 17 21 18 15 12 12 11 6 5 6 10 14 14 14 13 12 9 6 4 5 7 10 7 7 5 5 13 34 33 30 41 37 27 30 38 41 47 50 48 50 52 51 52 52 55 57 57 57 60 62
54 54 54 55 55 53 53 51 49 48 47 42 40 40 40 42 43 42 34 31 28 28 23 24 25 17 22 23 24 23 23 23 24 27 20 17 28 19 30 19 20 16 18 19 15 12 9 9 9 7 8 6 6 5 7 9 4 6 4 7 6 6 4 11 14 19 21 16 31 41 24 23 35 38 43 46 46 46 50 50 52 53 55 56 57 58 60 61
54 54 54 54 54 52 49 52 55 52 45 40 42 41 39 39 44 39 33 29 26 21 17 19 17 17 20 21 23 23 18 20 25 22 23 35 19 26 18 18 22 22 19 18 13 5 15 11 9 12 8 7 4 3 3 20 3 2 3 3 8 10 12 11 10 16 22 38 39 37 34 29 27 35 45 50 49 51 49 50 52 53 55 56 58 59 61 62
54 53 54 54 55 53 52 52 51 50 43 41 45 48 44 41 42 34 30 25 27 15 13 14 13 24 21 25 22 21 24 27 25 24 31 28 22 23 21 20 21 19 21 16 11 9 18 9 10 10 13 5 2 3 4 7 3 3 4 6 7 8 11 13 7 13 17 16 15 33 39 27 36 36 47 49 47 48 48 48 49 54 57 56 58 59 61 62
54 53 54 54 54 53 53 52 50 48 48 49 48 48 41 43 35 31 27 23 18 18 22 9 20 23 21 22 22 22 24 29 26 27 27 22 24 22 20 21 22 20 22 18 12 12 16 10 8 9 9 4 4 4 3 4 2 -0 6 9 12 11 14 13 11 12 25 16 19 23 27 25 27 42 37 41 47 46 47 48 50 54 58 56 57 58 59 62
53 53 54 54 53 53 53 53 50 49 50 50 49 48 44 37 31 24 28 30 14 11 21 19 22 20 22 19 21 22 21 24 29 30 25 20 22 23 24 25 23 22 18 21 16 15 15 30 35 18 10 6 4 4 5 5 0 2 13 10 6 9 20 29 36 32 29 18 25 26 22 30 28 38 37 36 38 43 47 51 53 55 51 55 56 56 57 60
52 53 54 53 50 51 51 50 49 50 50 48 48 45 39 36 33 28 26 22 15 17 18 15 15 21 18 19 18 20 22 25 26 24 20 22 19 21 20 16 21 17 17 14 12 12 11 11 11 14 18 13 7 7 10 7 9 10 10 13 9 13 30 37 34 35 17 20 32 28 24 30 26 30 39 43 45 44 47 48 49 48 53 55 55 58 60 61
51 52 53 53 53 52 50 47 51 50 46 45 48 43 39 30 27 31 30 21 19 15 15 13 15 17 17 22 21 17 16 21 25 23 18 19 20 18 17 16 22 22 17 19 12 11 9 9 12 11 28 7 10 5 2 6 4 7 14 18 11 16 17 13 28 14 12 18 27 25 33 32 29 34 34 37 39 44 49 48 48 52 53 53 56 61 62 63
50 51 52 52 52 51 50 51 51 49 46 47 45 42 37 36 33 31 25 22 20 13 12 16 12 15 16 19 19 19 19 15 22 22 21 23 19 17 18 14 17 15 14 24 17 13 12 15 14 9 10 18 5 1 3 -0 8 6 10 18 12 10 13 12 24 25 23 25 31 30 41 31 32 37 40 37 40 46 49 50 53 53 52 53 54 60 63 64
50 51 52 52 52 50 50 53 51 48 46 49 42 41 39 36 38 55 27 21 15 17 15 12 13 15 15 15 16 18 15 16 22 23 19 22 20 21 19 19 15 17 17 19 10 13 14 17 22 11 2 8 6 3 2 2 7 9 8 10 16 20 16 14 20 11 13 18 28 40 25 28 26 27 45 38 45 49 50 51 53 53 54 56 56 58 62 63
50 51 51 52 53 52 51 52 50 50 47 45 39 39 36 37 39 32 29 26 22 13 10 11 11 12 13 14 16 17 15 16 21 20 17 19 19 18 18 18 18 14 19 14 25 23 21 18 17 15 5 8 7 7 6 6 5 6 6 9 7 7 23 8 23 16 22 24 26 29 28 33 27 37 46 48 49 51 53 54 56 56 58 57 56 60 62 63
49 50 51 49 53 54 52 52 50 48 46 40 41 38 35 39 34 32 30 29 26 16 12 14 13 10 12 13 17 14 20 20 20 19 17 14 16 17 19 18 18 15 17 20 24 20 24 19 20 20 12 7 5 8 11 5 5 10 8 9 8 10 17 27 32 33 26 27 24 38 33 33 38 36 40 46 47 50 52 53 54 55 56 56 55 56 60 63
52 51 51 50 49 52 52 51 50 46 44 41 40 38 41 42 34 34 50 33 25 24 15 8 10 9 14 11 15 16 17 16 16 15 17 16 15 19 18 21 22 17 18 20 20 21 19 17 20 20 19 20 13 11 10 8 9 6 8 8 15 18 20 18 12 27 24 19 23 32 29 27 30 28 40 42 46 48 50 52 54 56 55 54 56 56 58 62
52 51 54 52 50 50 52 50 46 47 41 39 40 55 50 39 37 34 34 23 23 22 18 15 16 14 14 12 12 17 20 13 14 16 13 15 16 24 25 24 25 26 25 20 19 20 20 17 20 23 24 25 20 12 11 12 12 4 3 13 6 14 6 19 19 16 12 21 24 29 34 39 35 32 40 40 44 46 49 52 52 52 53 55 57 57 59 63
54 48 45 47 51 50 51 48 45 43 41 39 39 41 47 40 37 32 26 23 25 24 23 25 23 24 14 17 18 18 13 11 14 15 20 16 19 26 24 25 25 25 23 23 21 23 23 17 17 21 25 25 18 14 18 21 20 15 11 6 15 9 16 18 17 27 16 20 24 27 33 30 44 38 35 37 40 44 47 49 48 50 53 56 56 57 60 63
47 45 44 48 51 50 48 45 42 42 39 38 40 41 39 34 31 26 23 24 26 22 26 25 25 23 25 24 19 20 18 14 14 15 16 18 26 30 28 30 27 26 25 31 30 35 26 26 23 25 27 24 24 24 23 23 18 17 12 8 9 17 17 13 23 19 20 25 25 27 25 32 38 43 39 38 41 46 48 49 51 52 54 55 55 57 59 61
51 45 45 47 50 47 44 42 39 39 40 40 40 37 37 33 31 28 26 26 25 27 24 26 25 26 26 24 23 24 25 26 21 21 22 24 28 28 31 31 30 25 26 30 29 31 34 33 29 28 27 26 24 27 27 25 23 18 14 20 17 15 16 17 20 22 27 31 29 27 27 35 40 48 44 41 43 45 50 51 52 53 54 56 56 57 58 59
49 45 47 45 45 44 41 39 37 40 37 36 37 36 34 47 27 26 28 25 26 26 26 24 24 27 27 27 26 25 26 26 22 24 27 25 30 30 31 32 29 27 27 33 32 33 35 39 33 31 29 27 26 27 29 32 27 23 22 21 21 18 18 20 19 21 32 30 36 33 28 28 37 48 48 47 48 46 50 52 52 53 55 57 58 58 59 59
47 43 46 43 43 41 36 39 47 39 35 36 36 34 33 30 28 29 27 27 27 27 26 26 29 28 27 27 27 26 26 27 26 26 35 33 40 30 31 30 30 28 31 31 33 28 57 34 28 29 35 33 30 32 32 33 29 24 24 26 23 21 22 21 21 27 33 32 27 30 34 32 41 49 51 51 50 49 52 49 50 54 56 57 58 60 61 61
45 43 42 42 44 41 38 40 40 41 37 36 35 34 30 28 27 27 27 27 29 27 27 29 27 28 31 29 28 27 28 28 28 27 29 31 29 32 32 31 31 30 31 30 30 28 30 37 33 32 33 29 27 29 27 27 26 26 24 23 27 27 25 24 26 33 31 37 28 28 23 31 40 46 43 45 44 45 46 50 52 53 56 57 58 60 61 61
46 45 45 41 45 40 34 36 37 36 33 32 31 32 29 24 29 29 28 27 30 28 28 27 26 26 27 30 31 30 30 29 31 30 30 30 30 33 32 32 33 33 37 39 58 28 29 36 34 27 26 25 25 26 26 24 27 28 27 25 25 25 29 25 24 35 28 37 38 30 31 40 43 45 44 44 44 46 48 52 56 56 56 57 59 61 62 61
42 43 37 38 46 38 36 39 36 34 35 34 37 35 29 28 30 28 25 27 30 28 26 25 24 25 25 27 29 31 31 31 29 31 28 27 28 29 29 32 36 40 60 66 54 37 37 40 37 38 32 30 31 33 33 37 29 26 26 25 23 25 27 31 36 40 33 40 36 38 35 38 37 42 44 45 46 47 44 55 58 59 58 59 59 61 61 60
47 42 44 41 42 35 33 34 35 37 34 36 40 33 29 30 30 25 29 27 29 30 27 24 23 23 25 28 29 31 32 33 32 29 28 27 28 27 27 30 32 44 52 41 48 38 39 32 36 40 38 34 32 34 29 31 28 27 24 23 23 24 25 27 31 31 43 31 32 43 46 39 38 42 43 45 47 48 49 53 59 60 61 61 62 62 66 61
40 44 44 45 40 37 38 38 35 33 35 32 34 31 28 28 28 29 31 29 27 26 27 25 23 24 29 31 33 29 30 37 33 30 29 28 27 27 24 25 26 38 35 22 33 36 36 32 32 30 30 29 28 26 25 22 22 22 20 21 21 20 22 22 40 45 40 33 31 39 45 41 41 42 44 47 50 48 47 46 56 60 62 62 61 61 60 59
44 45 44 48 45 45 36 33 34 32 35 43 38 30 27 26 25 26 28 30 27 23 23 24 22 25 28 28 31 32 31 30 29 37 33 27 27 29 24 27 30 20 20 18 25 40 32 37 37 28 29 26 25 23 22 20 20 20 20 21 26 22 20 22 39 45 39 40 38 41 46 45 46 48 52 53 55 54 55 56 59 60 60 61 60 59 59 59
42 45 47 50 52 49 34 27 29 33 30 41 34 30 24 22 21 23 24 24 27 22 23 21 23 27 27 27 29 27 30 35 33 31 32 27 24 34 27 32 22 22 22 19 22 33 20 29 39 28 26 25 25 24 21 20 20 21 27 42 43 30 39 38 38 44 48 43 42 44 46 49 52 55 54 55 55 55 55 55 56 57 60 61 60 59 59 59
47 49 51 51 50 50 48 27 31 31 26 29 29 27 26 19 19 24 23 21 20 22 22 21 27 28 27 26 27 26 27 30 31 27 27 28 24 30 28 29 24 24 22 21 27 29 26 27 33 33 22 22 23 22 21 21 22 29 43 44 44 42 48 51 51 53 45 43 46 48 49 50 54 56 55 54 54 53 53 54 54 55 56 57 57 57 58 59
51 52 55 53 46 48 36 25 25 24 23 26 29 21 24 19 20 20 28 25 21 22 23 26 30 29 31 25 25 25 25 25 24 23 24 23 24 24 24 24 24 25 26 24 32 21 27 27 24 27 21 29 28 25 23 25 24 34 42 45 48 51 52 52 52 53 54 49 49 48 49 54 55 57 54 54 54 54 53 54 55 55 56 57 57 58 59 60